www.pogodaiklimat.ru

Погода и климат >> Архив погоды >> Франция >> Уэссан


ПОГОДА в Уэссане

  • Прогноз погоды в Уэссане
  • Монитор погоды в Уэссане

АРХИВ ПОГОДЫ в Уэссане

Время (UTC), дата Ветер
(напр.,м/с)
 
Видим.   Явления Облачность Т
(С)
Тd
(С)
f
(%)
Тe
(С)
Тes
(С)
Комфортность P
(гПа)
Po
(гПа)
Тmin
(С)
Tmax
(С)
R
(мм)
R24
(мм)
S
(см)
13 18.08 З 5-8
{8}
н/о н/о +17.2 +13.7 80 +17 +17 1011.7 1003.7
14 18.08 З 5-7
{7}
н/о н/о +18.9 +14.4 75 +20 +20 1012.2 1004.2
15 18.08 З 5-7
{7}
20 км 5/5 600 м
[Cu med, cong]
+18.8 +14.5 76 +19 +22 1012.6 1004.6
16 18.08 СЗ 4-5
{7}
н/о н/о +16.9 +14.0 83 +17 +17 1012.9 1004.9
17 18.08 З 4-6
{6}
н/о н/о +17.6 +14.1 80 +17 +17 1012.9 1004.9 0.2
18 18.08 З 4-6
{6}
н/о н/о +16.6 +13.3 81 +16 +16 1013.2 1005.2 +14.5 +19.4 0.2
19 18.08 З 4-6
{6}
н/о н/о +15.7 +13.0 84 +15 +15 1013.6 1005.5
20 18.08 З 4-6
{6}
н/о н/о +15.5 +13.3 87 +14 +14 1014.3 1006.2
21 18.08 З 4-5
{6}
18 км 8/8 1000 м
[Sc]
+14.8 +13.0 89 +14 +14 1014.8 1006.7
22 18.08 З 4-6
{6}
н/о н/о +14.8 +12.5 86 +14 +14 1015.2 1007.1
23 18.08 З 4-5
{6}
н/о н/о +14.6 +13.1 91 +13 +13 1015.7 1007.6
00 19.08 З 4-5
{6}
13 км 8/8 1000 м
[Sc]
+14.9 +12.8 87 +14 +14 1015.9 1007.8
01 19.08 З 4-5
{6}
н/о н/о +14.6 +13.0 90 +13 +13 1015.9 1007.8
02 19.08 З 4-5
{5}
н/о н/о +14.7 +12.9 89 +13 +13 1016.1 1008.0
03 19.08 З 4-5
{6}
20 км 4/4 600 м
[Cu med, cong]
+14.4 +12.6 89 +13 +13 1016.0 1007.9
04 19.08 З 3-5
{5}
н/о н/о +14.3 +12.7 90 +13 +13 1016.2 1008.1
05 19.08 З 4-5
{5}
н/о н/о +14.2 +12.6 90 +13 +13 1016.6 1008.5
06 19.08 З 3
{9}
18 км 4/4 600 м
[Cu med, cong]
+14.3 +12.7 90 +13 +13 1017.3 1009.2 +13.9 +16.5
07 19.08 З 3-4
{4}
н/о н/о +15.3 +12.4 83 +15 +15 1017.6 1009.5
08 19.08 З 3-4
{4}
н/о н/о +16.0 +13.5 85 +15 +15 1017.9 1009.8
09 19.08 З 3
{8}
15 км 5/5 1000 м
[Sc diur, vesp]
+17.6 +13.5 77 +18 +21 1018.5 1010.5
10 19.08 З 3-4
{4}
н/о н/о +18.4 +13.7 74 +19 +19 1019.2 1011.2
11 19.08 З 3-4
{4}
н/о н/о +17.8 +13.3 75 +18 +18 1019.8 1011.7
12 19.08 З 6-5
{9}
н/о н/о +18.8 +13.4 71 +19 +19 1019.9 1011.9
13 19.08 З 3-4
{6}
н/о н/о +17.8 +12.0 69 +18 +18 1020.6 1012.5
14 19.08 З 3-5
{5}
н/о н/о +19.2 +13.4 69 +21 +21 комфорт 1020.5 1012.5
15 19.08 З 4-5
{5}
н/о н/о +18.5 +12.7 69 +19 +19 1020.5 1012.5
16 19.08 З 3-4
{5}
н/о н/о +18.3 +13.4 73 +19 +19 1020.8 1012.8
17 19.08 З 3-4
{4}
н/о н/о +18.2 +12.9 71 +19 +19 1021.1 1013.0
18 19.08 З 2
{7}
20 км 8/8 1000 м
[Cu med, cong]
+17.5 +13.8 79 +18 +18 1021.3 1013.2 +14.4 +19.6
19 19.08 З 3-3
{3}
н/о н/о +15.5 +12.6 83 +15 +15 1021.7 1013.6
20 19.08 З 3-3
{4}
н/о н/о +14.2 +12.1 87 +13 +13 1022.3 1014.1
21 19.08 З 3-3
{3}
н/о н/о +13.8 +12.2 90 +13 +13 1022.6 1014.4
22 19.08 СЗ 3-4
{4}
н/о н/о +14.2 +12.2 88 +13 +13 1022.7 1014.5
23 19.08 СЗ 2-3
{3}
н/о н/о +14.3 +12.5 89 +14 +14 1023.0 1014.8
00 20.08 СЗ 2-3
{4}
20 км 3/3 1500 м
[Sc]
+14.3 +12.3 88 +14 +14 1023.2 1015.0
01 20.08 СЗ 3-3
{3}
н/о н/о +13.9 +12.3 90 +13 +13 1023.0 1014.8
02 20.08 СЗ 3-3
{3}
н/о н/о +14.1 +12.3 89 +13 +13 1022.8 1014.6
03 20.08 СЗ 3-4
{4}
20 км 3/3 1000 м
[Cu hum]
+14.1 +12.1 88 +13 +13 1023.1 1014.9
04 20.08 СЗ 3-3
{4}
н/о н/о +13.6 +12.0 90 +13 +13 1023.4 1015.2
05 20.08 СЗ 3-3
{3}
н/о н/о +13.6 +12.0 90 +13 +13 1023.7 1015.5
06 20.08 СЗ 2
{6}
18 км 1/1 1000 м
[Cu hum]
+13.3 +12.0 92 +12 +13 1024.4 1016.2 +13.1 +17.7
07 20.08 СЗ 2-2
{3}
н/о н/о +15.0 +12.9 87 +15 +15 1025.0 1016.8
08 20.08 С 1-2
{2}
н/о н/о +16.8 +12.3 75 +18 +18 1025.4 1017.3
09 20.08 С 2-2
{2}
18 км 4/4 1000 м
[Cu hum]
+17.0 +12.7 76 +18 +22 1026.0 1017.9
10 20.08 С 1 н/о н/о +17.5 +11.7 69 +19 +19 1026.4 1018.3
11 20.08 С 2-2
{2}
н/о н/о +17.7 +12.2 70 +18 +18 1026.7 1018.6
12 20.08 СЗ 2 20 км 3/3 1000 м
[Cu hum]
+18.3 +12.5 69 +19 +30 1026.8 1018.7
13 20.08 СЗ 2-3
{3}
н/о н/о +18.7 +12.4 67 +20 +20 1027.2 1019.1
14 20.08 СЗ 2-3
{3}
н/о н/о +19.2 +13.1 68 +21 +21 комфорт 1027.3 1019.2
15 20.08 СЗ 3
{5}
20 км 4/3 1000 м
[Cu hum Ci fib]
+18.7 +12.2 66 +20 +25 1027.2 1019.1
16 20.08 С 2-2
{5}
н/о н/о +18.1 +11.9 67 +19 +19 1027.2 1019.1
17 20.08 С 2-2
{3}
н/о н/о +18.0 +12.4 70 +19 +19 1027.2 1019.1
18 20.08 С 1
{3}
20 км 3/3 1000 м
[Cu hum Ci fib]
+17.3 +12.2 72 +19 +20 1027.4 1019.3 +13.3 +19.2
19 20.08 СВ 1-1
{1}
н/о н/о +15.7 +11.5 76 +17 +17 1027.7 1019.5
20 20.08 С 1-1
{1}
н/о н/о +14.8 +11.4 80 +16 +16 1028.0 1019.8
21 20.08 ЮВ 1-1
{1}
н/о н/о +14.7 +11.5 81 +16 +16 1028.4 1020.2
22 20.08 В 1-1
{1}
н/о н/о +14.4 +11.4 82 +15 +15 1028.3 1020.1
23 20.08 В 1-1
{1}
н/о н/о +13.6 +11.6 88 +15 +15 1028.1 1019.9
00 21.08 ЮВ 1-2
{2}
20 км 4/0
[Ci fib]
+13.6 +11.6 88 +14 +14 1027.9 1019.7
01 21.08 ЮВ 2-2
{2}
н/о н/о +13.5 +11.7 89 +13 +13 1027.6 1019.4
02 21.08 ЮВ 1-2
{2}
н/о н/о +13.4 +11.8 90 +13 +13 1027.5 1019.3
03 21.08 ЮВ 1-1
{2}
20 км 4/0
[Ci fib]
+13.6 +11.5 87 +14 +14 1027.4 1019.2
04 21.08 ЮВ 1-1
{2}
н/о н/о +13.2 +11.6 90 +13 +13 1027.3 1019.1
05 21.08 В 1-1
{1}
н/о н/о +12.9 +11.6 92 +13 +13 1027.4 1019.1
06 21.08 В 1
{3}
18 км 10/0
[Cs]
+12.7 +11.8 94 +13 +13 1027.5 1019.2 +12.2 +17.4
07 21.08 В 1-2
{2}
н/о н/о +13.9 +13.3 96 +14 +14 1027.7 1019.5
08 21.08 СВ 1-2
{2}
н/о н/о +15.3 +13.1 87 +16 +16 1027.6 1019.4
09 21.08 В 2-2
{2}
20 км 1/1 300 м
[Cu hum]
+16.0 +13.3 84 +16 +23 1027.5 1019.3
10 21.08 В 1-2
{2}
н/о н/о +17.4 +12.5 73 +18 +18 1027.2 1019.1
11 21.08 В 1-2
{2}
н/о н/о +18.3 +12.5 69 +20 +20 1027.0 1018.9
12 21.08 С 1-2
{2}
н/о н/о +17.1 +12.0 72 +18 +18 1026.8 1018.7
13 21.08 С 2-3
{3}
н/о н/о +18.0 +14.1 78 +19 +19 1026.8 1018.7
14 21.08 С 2-3
{3}
н/о н/о +17.7 +13.6 77 +18 +18 1026.5 1018.4
15 21.08 С 2 н/о н/о +18.1 +13.4 74 +19 +19 1026.3 1018.2
16 21.08 С 2-3
{3}
н/о н/о +18.3 +13.6 74 +19 +19 1026.0 1017.9
17 21.08 СВ 2-2
{3}
н/о н/о +18.1 +13.0 72 +19 +19 1025.7 1017.6
18 21.08 СВ 2
{5}
20 км 1/0
[Ci fib]
+17.1 +12.0 72 +18 +19 1025.8 1017.7 +12.6 +19.0
19 21.08 С 1-2
{2}
н/о н/о +15.4 +12.7 84 +16 +16 1026.1 1017.9
20 21.08 С 2-2
{2}
н/о н/о +14.6 +12.8 89 +14 +14 1026.3 1018.1
21 21.08 СВ 2-2
{2}
н/о н/о +14.4 +12.8 90 +14 +14 1026.4 1018.2
22 21.08 С 1-2
{2}
н/о н/о +14.4 +12.4 88 +15 +15 1026.6 1018.4
23 21.08 С 1-2
{2}
н/о н/о +14.5 +12.2 86 +15 +15 1026.5 1018.3
00 22.08 С 1-2
{2}
н/о н/о +14.4 +11.7 84 +15 +15 1026.3 1018.1 0.2
01 22.08 С 2-2
{2}
н/о н/о +14.2 +12.1 87 +14 +14 1026.0 1017.8
02 22.08 С 2-2
{2}
н/о н/о +13.8 +12.0 89 +13 +13 1025.9 1017.7
03 22.08 СЗ 2-2
{2}
н/о н/о +13.6 +9.8 78 +13 +13 1025.8 1017.6
04 22.08 СЗ 2-2
{3}
н/о н/о +12.6 +10.8 89 +12 +12 1025.8 1017.5
05 22.08 СЗ 2-2
{3}
н/о н/о +12.9 +11.3 90 +12 +12 1025.7 1017.5
06 22.08 С 2
{4}
н/о н/о +13.8 +12.2 90 +13 +13 1026.1 1017.9 +12.4 +17.0
07 22.08 С 2-2
{2}
н/о н/о +15.1 +13.0 87 +15 +15 1026.4 1018.2
08 22.08 С 1-1
{2}
н/о н/о +16.5 +13.2 81 +17 +17 1026.3 1018.2
09 22.08 С 1-2
{2}
н/о н/о +16.8 +13.1 79 +18 +18 1026.7 1018.6
10 22.08 С 1-2
{2}
н/о н/о +17.3 +13.0 76 +18 +18 1026.8 1018.7
11 22.08 СВ 2-2
{2}
н/о н/о +18.3 +13.8 75 +19 +19 1026.8 1018.7
12 22.08 С 2-2
{2}
н/о н/о +17.7 +13.4 76 +18 +18 1026.6 1018.5
13 22.08 С 2-2
{2}
н/о н/о +17.8 +14.5 81 +19 +19 1026.4 1018.3
14 22.08 С 2-2
{2}
н/о н/о +18.2 +14.5 79 +19 +19 1026.2 1018.1
15 22.08 С 2-3
{3}
н/о н/о +18.7 +14.8 78 +20 +20 1025.9 1017.8
16 22.08 С 2-3
{3}
н/о н/о +18.6 +14.1 75 +20 +20 1025.9 1017.8
17 22.08 С 2-3
{3}
н/о н/о +17.7 +14.0 79 +18 +18 1025.5 1017.4
18 22.08 С 3-3
{3}
н/о н/о +17.1 +13.6 80 +17 +17 1025.2 1017.1 +13.8 +18.8
19 22.08 СВ 2-3
{3}
н/о н/о +15.9 +14.3 90 +16 +16 1025.4 1017.3
20 22.08 СВ 3-4
{4}
н/о н/о +15.0 +13.7 92 +14 +14 1025.7 1017.5
21 22.08 СВ 3-4
{4}
н/о н/о +14.9 +13.6 92 +14 +14 1025.6 1017.4
22 22.08 В 4-4
{4}
20 км 6/0
[]
+15.0 +14.0 94 +14 +14 1025.5 1017.3
23 22.08 В 4-4
{5}
н/о н/о +14.2 +13.7 97 +13 +13 1025.0 1016.8
00 23.08 В 4-4
{5}
20 км 4/0
[Cs]
+14.4 +13.1 92 +13 +13 1024.7 1016.5
01 23.08 В 3-4
{5}
н/о н/о +14.0 +13.0 94 +13 +13 1024.2 1016.0
02 23.08 В 3-3
{4}
н/о н/о +13.7 +12.8 94 +13 +13 1024.0 1015.8
03 23.08 В 5-3
{6}
н/о н/о +13.9 +12.5 91 +12 +12 1023.7 1015.5
04 23.08 В 5-3
{6}
н/о н/о +13.6 +12.8 95 +12 +12 1023.1 1014.9
05 23.08 В 2-3
{3}
н/о н/о +13.4 +12.8 96 +13 +13 1022.8 1014.6 0.2
06 23.08 В 2
{8}
н/о н/о +13.9 +12.6 92 +13 +13 1022.7 1014.5 +13.3 +17.1 0.2
07 23.08 ЮВ 2-3
{4}
н/о н/о +15.8 +12.9 83 +16 +16 1022.5 1014.4
08 23.08 ЮВ 2-3
{3}
н/о н/о +17.8 +13.5 76 +18 +18 1022.3 1014.2
09 23.08 ЮВ 2-2
{3}
н/о н/о +19.3 +13.7 70 +21 +21 комфорт 1022.2 1014.2
10 23.08 В 2-2
{2}
н/о н/о +20.0 +14.4 70 +23 +23 комфорт 1021.9 1013.9
11 23.08 В 1-2
{3}
н/о н/о +22.4 +14.3 60 +26 +26 жарко 1021.5 1013.6
12 23.08 В 1-2
{2}
20 км 6/0
[Cs]
+22.5 +14.9 62 +26 +37 жарко 1021.2 1013.3
13 23.08 В 1-2
{3}
н/о н/о +21.6 +15.0 66 +25 +25 комфорт 1021.1 1013.1
14 23.08 СВ 2-3
{3}
н/о н/о +23.2 +16.0 64 +28 +28 душно 1020.7 1012.8
15 23.08 СВ 3-4
{4}
н/о н/о +21.4 +15.5 69 +25 +25 комфорт 1020.0 1012.1
16 23.08 В 4-5
{5}
н/о н/о +20.3 +15.3 73 +23 +23 комфорт 1019.7 1011.7
17 23.08 В 4-5
{5}
н/о н/о +21.4 +15.2 68 +25 +25 комфорт 1019.0 1011.1
18 23.08 В 2
{9}
20 км 6/0
[Cc]
+20.1 +15.5 75 +23 +24 комфорт 1018.9 1010.9 +14.0 +23.4
19 23.08 В 2-3
{3}
н/о н/о +18.2 +15.1 82 +19 +19 1018.7 1010.7
20 23.08 В 2-2
{3}
н/о н/о +19.2 +15.5 79 +22 +22 комфорт 1018.6 1010.6
21 23.08 В 2-2
{2}
н/о н/о +19.4 +15.5 78 +22 +22 комфорт 1018.2 1010.2
22 23.08 В 2-3
{3}
н/о н/о +19.0 +16.0 83 +21 +21 комфорт 1017.7 1009.7
23 23.08 В 3-4
{4}
н/о н/о +18.4 +15.6 84 +19 +19 1017.6 1009.6
00 24.08 ЮВ 3-4
{4}
20 км 6/0
[Cs]
+18.6 +14.9 79 +20 +20 1017.4 1009.4
01 24.08 ЮВ 3-4
{4}
н/о н/о +18.4 +14.5 78 +19 +19 1016.9 1008.9
02 24.08 ЮВ 3-5
{5}
н/о н/о +18.4 +13.9 75 +19 +19 1016.5 1008.5
03 24.08 ЮВ 4-5
{5}
н/о н/о +18.5 +13.6 73 +19 +19 1016.1 1008.1
04 24.08 ЮВ 4-5
{5}
н/о н/о +18.2 +13.5 74 +18 +18 1015.6 1007.6
05 24.08 ЮВ 3-5
{6}
н/о н/о +18.2 +13.5 74 +19 +19 1015.4 1007.4
06 24.08 Ю 3
{11}
20 км 4/0
[As op Ci fib]
+17.3 +14.9 86 +17 +17 1015.2 1007.2 +17.1 +20.1
07 24.08 ЮВ 3-4
{5}
н/о н/о +18.4 +14.9 80 +19 +19 1015.3 1007.3
08 24.08 ЮВ 3-5
{6}
н/о н/о +20.0 +14.6 71 +22 +22 комфорт 1015.3 1007.3
09 24.08 ЮВ 4-6
{6}
н/о н/о +21.2 +14.4 65 +24 +24 комфорт 1015.2 1007.3
10 24.08 Ю 3-6
{6}
н/о н/о +20.8 +15.3 71 +24 +24 комфорт 1015.2 1007.3
11 24.08 Ю 5-6
{6}
н/о н/о +21.2 +16.4 74 +25 +25 комфорт 1015.4 1007.5
12 24.08 Ю 4-5
{6}
20 км 8/4
[Sc Ci fib]
+22.2 +18.2 78 +27 +27 душно 1015.5 1007.6
13 24.08 ЮЗ 3-4
{5}
н/о н/о +21.9 +18.3 80 +27 +27 душно 1015.5 1007.6
14 24.08 Ю 3-4
{4}
н/о н/о +21.9 +17.9 78 +27 +27 душно 1015.5 1007.6
15 24.08 Ю 3
{8}
20 км 9/4
[Sc Ci fib]
+21.3 +17.7 80 +25 +29 комфорт 1015.4 1007.5
16 24.08 Ю 3-4
{4}
н/о н/о +19.9 +18.0 89 +23 +23 комфорт 1015.5 1007.6
17 24.08 ЮЗ 3-4
{4}
н/о н/о +19.3 +16.5 84 +21 +21 комфорт 1015.6 1007.6
18 24.08 ЮЗ 2
{8}
12 км 9/8
[Sc Cc]
+17.6 +15.8 89 +18 +18 1015.5 1007.5 +17.3 +22.4
19 24.08 З 2-2
{3}
н/о н/о +17.1 +15.4 90 +18 +18 1015.7 1007.7
20 24.08 З 2-2
{2}
н/о н/о +16.8 +16.0 95 +17 +17 1016.1 1008.1
21 24.08 З 2
{5}
20 км 8/0
[Ac cuf Ci fib]
+16.6 +16.1 97 +17 +17 1016.3 1008.3
22 24.08 СЗ 3-4
{4}
н/о н/о +16.9 +16.6 98 +17 +17 1016.5 1008.5
23 24.08 СЗ 3-4
{4}
н/о н/о +16.7 +16.4 98 +16 +16 1016.6 1008.6
00 25.08 СЗ 3-4
{4}
17 км 9/9 1500 м
[Sc]
+16.7 +16.2 97 +17 +17 1016.9 1008.8
01 25.08 СЗ 3-3
{3}
н/о н/о +16.3 +15.8 97 +16 +16 1016.8 1008.7
02 25.08 СЗ 2-2
{3}
н/о н/о +16.2 +15.9 98 +16 +16 1016.8 1008.7
03 25.08 СЗ 2-2
{2}
н/о н/о +16.6 +16.6 100 +17 +17 1017.2 1009.1
04 25.08 З 1-1
{2}
н/о н/о +16.6 +16.6 100 +17 +17 1017.2 1009.1
05 25.08 ЮЗ 1-1
{1}
н/о н/о +16.5 +16.5 100 +17 +17 1017.3 1009.2
06 25.08 ЮЗ 1
{3}
17 км 10/10 600 м
[Sc]
+16.9 +16.9 100 +18 +18 1017.5 1009.5 +15.9 +17.5
07 25.08 З 1-2
{2}
н/о н/о +17.6 +17.6 100 +19 +19 1017.9 1009.9 0.2
08 25.08 З 1-2
{2}
н/о н/о +17.9 +17.9 100 +19 +19 1018.6 1010.6
09 25.08 З 2-3
{3}
500 м туман ?/? +17.9 +17.9 100 +18 +18 1019.0 1011.0 0.4
10 25.08 СЗ 2-4
{4}
н/о н/о +17.3 +17.3 100 +18 +18 1019.3 1011.3
11 25.08 СЗ 3-4
{4}
н/о н/о +17.5 +17.3 99 +18 +18 1019.4 1011.4
12 25.08 СЗ 3
{9}
15 км 4/4 200 м
[Cu hum]
+19.6 +17.0 85 +22 +29 комфорт 1019.5 1011.5

 

Местоположение метеостанции Уэссан (Франция): широта 48.48 долгота -5.05 высота над уровнем моря 68 м.

В архиве по умолчанию представлена погода в Уэссане за последнюю неделю. Архивные данные за месяц целиком и за предыдущие месяцы, начиная с января 2011 года, Вы можете получить, выбрав интересующий диапазон дат из раскрывающегося списка и нажав кнопку "Ввод!".


*Определитесь, кто Вы:
робот инопланетянин человек

Внимание! Время в таблицах - всемирное. Для получения местного времени необходимо прибавить поправку, которая равна 1 ч.

Смотрите также архив погоды в соседних городах и на ближайших метеорологических станциях:

Погода в Плудальмезо (Франция) (30 км)
Погода в Бресте (Франция) (47 км)
Погода на Пуэнт-дю-Ра (Франция) (55 км)
Погода в Бриньоган-Пляже (Франция) (57 км)
Погода в Ландивизио (Франция) (66 км)
Погода в Иль-де-Ба (Франция) (81 км)
Погода в Кемпере (Франция) (86 км)
Погода в Пенмарше (Франция) (91 км)
Погода в Ланьоне (Франция) (120 км)
Погода в Перрос-Гиреке (Франция) (122 км)

Пояснения к столбцам:

Ветер - указаны скорость ветра в м/с - средняя за 10 мин, порывы в срок и между сроками (в фигурных скобках) и направление, откуда дует ветер: С - северный, СВ - северо-восточный, В - восточный, ЮВ - юго-восточный, Ю - южный, ЮЗ - юго-западный, З - западный, СЗ - северо-западный.
Видимость - горизонтальная дальность видимости в метрах или километрах. При видимости от 1 до 10 км при отсутствии осадков обычно наблюдается дымка, при ухудшении видимости до 1 км и менее - туман. В сухую погоду видимость может ухудшаться дымом, пылью или мглою.
Явления - указаны атмосферные явления, наблюдавшиеся в срок или в последний час перед сроком; фигурными скобками обозначены явления, наблюдавшиеся между сроками (за 1-3 часа до срока); квадратными скобками обозначены град или гололедные отложения с указанием их диаметра в мм.
Облачность - указаны через наклонную черту общая и нижняя облачность в баллах и высота нижней границы облаков в метрах; квадратными скобками обозначены формы облаков: Ci - перистые, Cs - перисто-слоистые, Cc - перисто-кучевые, Ac - высококучевые, As - высокослоистые, Sc - слоисто-кучевые, Ns - слоисто-дождевые, Cu - кучевые, Cb - кучево-дождевые. Подробнее классификацию облаков см. в Атласе облаков (PDF).
T - Температура воздуха - температура, измеренная на высоте 2 м над землей.
Td - Температура точки росы - температура, при понижении до которой содержащийся в воздухе водяной пар достигнет насыщения.
f - Относительная влажность воздуха - влажноcть воздуха, измеренная на высоте 2 м над землей.
Te - Эффективная температура - температура, которую ощущает одетый по сезону человек в тени. Характеристика душности погоды. При расчете учитывается влияние влажности воздуха и скорости ветра на теплоощущения человека.
Tes - Эффективная температура на солнце - температура, которую ощущает человек, с поправкой на солнечный нагрев. Характеристика знойности погоды. Зависит от высоты солнца над горизонтом, облачности и скорости ветра. Ночью, в пасмурную погоду, а также при ветре 12 м/с и более поправка равна нулю.
P - Атмосферное давление - приведенное к уровню моря атмосферное давление.
Po - Атмосферное давление - измеренное на уровне метеостанции атмосферное давление.
Tmin - Минимальная температура - минимум температуры воздуха на высоте 2 м над землей.
Tmax - Максимальная температура - максимум температуры воздуха на высоте 2 м над землей.
R - Количество осадков - Количество выпавших осадков за период времени, мм. При наведении курсора мыши на число - период времени, за который выпало указанное количество осадков.
R24 - Количество осадков - Количество выпавших осадков за 24 часа, мм.
S - Снежный покров - Высота снежного покрова, см. При наведении курсора мыши на число - состояние снежного покрова и степень покрытия местности в баллах.